Regional Weather Roundup
Issued by NWS

Home | Current Version | Previous Version | Graphics & Text | Print | Product List | Glossary On
Versions: 1 2 3 4 5 6 7 8 9 10 11 12 13 14 15 16 17 18 19 20 21 22 23 24 25 26 27 28 29 30 31 32 33 34 35 36 37 38 39 40 41 42 43 44 45 46 47 48 49 50
000
ASUS43 KBIS 290610
RWRND

NORTH DAKOTA REGIONAL WEATHER ROUNDUP
NATIONAL WEATHER SERVICE BISMARCK ND
1200 AM CST THU JAN 29 2015

NOTE: "FAIR" INDICATES FEW OR NO CLOUDS BELOW 12,000 FEET WITH NO
SIGNIFICANT WEATHER AND/OR OBSTRUCTIONS TO VISIBILITY.


NDZ001>003-009>011-017-290700-
NORTHWEST NORTH DAKOTA

CITY           SKY/WX    TMP DP  RH WIND       PRES   REMARKS
WILLISTON      CLOUDY    31  26  82 N15G21    30.34R
6HR MIN TEMP:  31; 6HR MAX TEMP:  34;

MINOT          CLOUDY    28  22  78 NW22G29   30.25R WCI  14
MINOT AFB      CLOUDY    28  28  99 NW25G32   30.24R WCI  13
$$

NDZ018>021-031>035-040>046-290700-
SOUTHWEST NORTH DAKOTA

CITY           SKY/WX    TMP DP  RH WIND       PRES   REMARKS
BISMARCK       CLOUDY    33  27  78 NW17G26   30.24R
6HR MIN TEMP:  32; 6HR MAX TEMP:  33;

DICKINSON      CLOUDY    33  27  78 NW16G24   30.25R
GARRISON         N/A     31  27  85 NW18      30.24R WCI  19
6HR MIN TEMP:  30; 6HR MAX TEMP:  32;

HETTINGER ARPT CLOUDY    32  26  78 NW16      30.28R
$$

NDZ004>008-012>016-024-026-027-054-290700-
NORTHEAST NORTH DAKOTA

CITY           SKY/WX    TMP DP  RH WIND       PRES   REMARKS
GRAND FORKS    CLOUDY    23  19  86 NW22G30   30.12R WCI   8
GRND FRKS AFB  CLOUDY    23  19  84 N15       30.13R WCI  10
DEVILS LAKE    CLOUDY    25  19  80 N17       30.16R WCI  11
$$

NDZ022-023-025-028>030-036>039-047>053-290700-
SOUTHEAST NORTH DAKOTA

CITY           SKY/WX    TMP DP  RH WIND       PRES   REMARKS
FARGO          CLOUDY    29  25  85 NW24G30   30.08R WCI  15
6HR MIN TEMP:  29; 6HR MAX TEMP:  34; 6HR PCP: TRACE;

JAMESTOWN      CLOUDY    27  22  81 N21G37    30.14R WCI  13
$$




USA.gov is the U.S. government's official web portal to all federal, state and local government web resources and services.